Theta_e
309 310 310 311 311 312 312 311 309 310 312 310 312 311 311 313 312 312 310 310 309 309 309 309 309 309 309 309 308 308 307 307 306 305 304 304 303 301 300 299 298 298 298 298
310 312 312 313 312 312 310 308 310 311 312 310 311 311 311 312 312 311 310 309 309 309 309 308 308 307 307 306 306 306 305 304 304 303 302 300 299 299 298 298 298 297 297 297
310 310 312 314 312 311 308 310 309 311 312 309 308 308 310 311 311 310 309 309 308 308 308 307 306 306 306 305 304 303 303 303 302 301 300 299 299 298 298 298 297 297 297 298
309 310 316 312 310 309 311 311 310 310 310 308 308 309 310 311 311 310 309 308 307 307 306 306 305 304 304 303 303 302 302 301 300 300 299 299 298 298 297 297 297 297 296 296
309 312 312 312 310 309 309 310 311 310 308 307 308 309 310 312 311 311 309 308 308 307 306 305 305 304 303 302 302 301 300 300 299 299 299 299 298 297 297 297 296 295 295 295
308 312 316 313 309 309 307 307 309 310 308 308 308 309 305 310 311 310 309 308 307 306 305 304 303 303 302 301 300 300 300 299 299 299 296 296 297 297 297 296 296 296 295 295
308 308 311 310 310 309 308 307 310 311 310 309 307 309 309 310 310 309 308 306 305 305 304 304 303 302 301 300 299 299 299 298 296 296 297 297 297 297 296 296 295 295 294 294
308 310 314 311 310 310 309 310 310 311 311 310 308 308 308 308 308 307 306 305 305 304 303 302 301 300 299 299 299 299 297 296 297 298 298 297 297 296 295 294 294 293 291 291
310 311 311 312 311 312 310 311 311 311 311 309 307 307 307 306 306 306 305 304 303 303 302 300 299 299 298 298 298 297 296 296 297 297 297 296 296 295 293 292 291 291 290 290
310 311 311 311 311 310 309 310 310 310 310 310 308 306 306 305 305 304 304 303 302 302 300 298 298 297 297 296 296 296 296 297 297 296 296 295 294 292 291 291 290 289 289 288
306 307 310 312 310 310 310 310 310 310 309 309 308 306 306 305 304 303 303 302 302 300 300 299 298 297 297 297 296 296 296 295 295 294 293 292 290 290 290 289 289 289 289 289
306 308 310 309 311 310 310 311 310 310 309 309 309 307 306 305 303 303 302 302 300 300 300 299 298 297 297 296 295 294 294 293 293 293 291 289 288 288 288 289 289 289 289 288
306 306 307 307 306 308 308 308 310 310 309 309 309 308 306 305 303 302 302 301 300 300 299 298 297 296 295 293 292 293 293 292 291 289 288 287 287 288 288 289 289 287 286 286
306 305 305 306 307 308 309 309 310 310 309 308 308 308 306 304 302 302 301 301 300 299 298 297 296 295 293 292 293 290 289 289 288 288 287 287 288 288 288 287 286 285 285 285
306 306 306 306 306 306 306 307 309 309 309 308 308 307 306 304 302 302 301 301 300 299 297 296 294 293 293 292 290 289 288 287 287 287 287 288 288 288 287 286 285 285 285 286
305 305 305 305 306 306 306 307 308 309 308 308 307 306 305 304 302 302 301 300 299 298 296 294 293 293 291 289 288 288 287 287 287 287 287 287 287 286 285 285 285 285 285 286
305 305 306 306 307 307 307 307 308 308 308 307 307 306 304 303 302 301 301 299 298 297 295 293 293 291 290 289 288 287 287 287 287 287 287 286 286 286 286 286 285 285 286 286
305 306 306 308 308 308 308 308 307 307 307 307 306 305 304 302 302 301 300 298 297 295 293 293 292 290 289 288 287 287 287 287 287 287 286 286 286 286 286 285 285 286 287 287
304 306 306 307 307 307 308 308 308 308 307 306 305 304 303 302 302 301 298 298 296 294 293 292 290 289 288 288 287 287 287 287 287 286 287 287 287 286 285 286 287 287 287 287
305 304 306 307 306 307 307 307 308 308 307 306 305 303 302 302 301 299 298 296 294 293 293 291 290 289 288 288 287 287 287 287 286 287 287 288 288 287 286 286 286 287 287 287
308 307 307 307 307 307 307 307 307 308 307 305 304 303 302 301 300 298 296 294 293 293 292 290 289 288 288 288 287 287 287 287 287 287 287 288 288 287 285 285 287 287 287 287
308 307 307 307 307 306 306 306 306 307 306 304 303 303 302 300 298 297 295 294 293 293 291 290 289 288 288 288 288 287 287 287 287 287 287 287 288 288 286 286 286 287 287 287
306 306 305 304 304 304 304 304 305 307 306 304 303 302 302 300 298 296 294 294 293 293 290 290 289 289 288 288 288 288 288 287 287 287 287 287 287 287 287 286 286 287 287 287
304 303 303 302 301 303 303 303 304 305 305 303 302 302 301 299 297 295 294 293 293 291 290 289 289 289 289 289 289 289 288 288 288 288 288 287 287 287 287 285 286 287 287 287
305 305 304 302 302 304 304 303 303 304 303 302 302 301 299 298 295 294 293 293 293 291 290 289 289 289 289 289 289 289 289 289 288 288 288 288 288 287 287 286 285 287 287 288
304 303 304 303 304 305 304 303 304 302 302 301 300 299 298 295 294 293 293 293 291 290 289 289 289 289 289 290 289 289 289 289 289 288 288 288 288 287 287 286 286 288 287 288
303 304 305 304 303 304 304 304 303 302 301 301 299 298 295 294 293 293 293 292 291 290 289 289 289 289 289 289 289 289 289 289 289 288 287 288 288 287 287 287 285 286 288 288
Wind_Speed
8 15 10 13 11 5 4 3 3 3 1 5 4 6 8 9 11 11 13 15 15 18 19 18 18 17 16 15 12 10 9 7 7 6 5 5 7 8 9 9 10 11 12 13
6 3 4 3 3 3 3 3 3 3 3 4 7 10 11 15 14 13 14 15 16 16 15 14 12 12 12 11 9 6 6 6 5 4 5 6 6 7 9 10 11 12 13 13
5 6 8 2 3 1 2 1 2 2 2 2 5 7 5 10 16 18 18 18 18 16 12 12 11 10 10 9 7 4 3 1 2 3 5 6 8 9 10 11 12 13 14 15
4 6 1 5 1 4 5 1 1 2 2 5 7 9 5 12 16 18 19 19 17 15 15 11 8 7 8 6 4 2 2 3 4 6 8 10 11 13 14 14 14 15 17 18
0 2 5 3 3 4 3 2 2 4 3 6 11 3 5 6 18 19 18 17 16 15 12 10 7 7 6 6 4 4 3 4 6 7 10 12 14 15 13 15 17 16 17 17
1 0 4 4 2 1 3 4 5 7 8 9 5 2 4 5 19 19 18 17 17 15 12 10 12 9 6 4 3 3 3 6 9 13 14 14 14 15 16 19 19 20 19 20
3 3 7 6 3 4 2 5 6 8 9 10 5 7 11 14 18 19 18 18 16 13 11 9 8 7 5 2 2 4 6 11 11 10 10 12 13 17 18 19 20 19 20 21
3 2 6 5 3 5 4 6 6 6 6 7 7 11 17 17 19 19 19 17 13 11 10 9 7 5 3 4 5 7 10 10 8 9 10 12 16 18 20 19 19 19 21 23
8 5 4 6 7 6 8 8 7 7 6 7 13 17 18 19 19 18 16 15 11 8 10 9 6 4 5 6 7 9 9 9 9 11 13 15 18 21 18 16 18 21 23 25
2 3 4 9 8 8 9 9 7 7 7 10 12 17 19 19 20 19 17 15 12 11 10 8 5 4 5 6 8 10 10 11 12 14 17 19 18 15 16 18 19 21 24 28
6 8 15 10 13 10 11 7 5 5 7 8 13 18 19 22 21 20 18 15 12 11 9 6 4 4 5 7 9 9 10 11 14 15 14 13 13 15 16 18 17 21 23 21
10 12 7 5 4 13 12 8 6 6 7 11 13 15 19 21 21 21 19 16 15 12 9 7 5 6 8 10 11 10 10 10 10 10 13 15 15 15 15 18 20 19 14 16
36 20 21 23 20 18 19 19 12 8 8 10 16 17 19 22 23 21 18 16 16 12 9 7 6 7 8 9 8 7 7 9 10 13 14 15 15 17 22 21 21 21 16 17
32 29 23 27 17 8 11 15 15 12 10 10 13 21 19 23 25 23 20 18 16 12 9 8 7 7 7 5 6 6 7 9 12 13 15 15 16 18 21 27 29 25 16 16
33 27 28 23 21 27 23 15 16 17 16 15 17 21 24 27 27 24 20 19 15 11 8 7 6 5 3 4 5 7 9 10 11 13 14 15 17 20 24 26 21 20 20 18
30 30 33 32 26 27 27 25 23 21 18 16 20 25 26 25 25 24 21 19 15 10 7 6 4 2 2 4 6 8 9 10 11 13 14 16 19 23 21 20 21 20 21 23
27 22 19 14 16 12 20 24 26 22 19 20 20 26 28 28 27 25 22 17 13 8 6 5 4 2 2 4 7 8 8 9 11 12 14 18 18 18 20 21 22 21 21 21
31 24 21 17 14 15 15 15 20 25 24 24 25 30 31 32 29 27 23 18 14 9 7 6 4 2 2 4 7 7 8 9 11 13 16 15 17 19 20 20 20 21 21 22
33 30 26 24 19 18 19 20 20 23 25 27 30 33 32 29 26 25 22 17 13 10 9 8 5 2 1 5 6 7 8 9 10 14 14 15 16 17 19 20 22 23 24 26
17 26 28 25 23 20 19 17 19 19 25 31 32 34 33 29 27 25 20 14 10 9 10 8 5 2 1 4 5 7 8 9 11 13 16 18 19 21 22 23 24 24 26 28
11 13 16 19 21 21 20 19 20 23 29 32 32 34 31 29 27 23 21 18 15 13 10 8 5 2 0 3 5 6 8 9 11 14 16 19 20 22 23 24 25 26 29 30
15 18 20 22 22 22 20 21 23 26 31 34 33 31 31 30 27 23 15 11 15 13 10 8 5 3 1 2 4 6 8 10 12 14 16 19 20 21 23 24 27 29 31 31
19 22 23 24 23 20 18 23 25 30 32 34 33 32 30 29 27 25 22 18 15 14 12 9 6 4 1 2 4 6 8 10 12 14 17 19 20 21 23 25 27 29 31 32
14 12 10 10 13 17 20 25 30 33 31 31 29 28 28 28 25 19 14 16 17 15 12 9 7 4 2 1 4 6 8 10 13 15 17 18 19 20 22 25 27 29 31 31
4 7 15 15 21 23 23 28 30 30 29 29 27 25 24 22 19 21 19 19 18 15 13 10 7 5 2 1 4 6 8 10 13 15 17 18 19 20 22 24 26 28 30 31
9 15 16 15 22 25 27 29 29 30 30 30 28 26 23 20 18 17 19 19 18 15 13 10 7 5 3 2 4 6 8 10 12 15 17 17 18 19 21 24 26 28 30 30
15 17 20 21 22 27 26 28 28 31 29 30 29 27 24 22 18 19 20 20 18 15 13 10 8 5 3 3 4 7 9 11 13 16 17 16 17 18 21 23 25 27 29 30
Wind_Direction
242 260 275 258 265 320 48 294 118 306 43 326 178 159 145 126 120 119 120 122 120 121 120 120 121 123 131 138 146 155 163 169 173 178 194 220 236 251 264 274 278 277 276 276
292 243 319 251 342 43 21 6 105 101 48 327 104 130 138 142 142 140 137 134 133 131 126 122 125 134 144 149 157 163 160 160 167 201 222 244 266 281 283 281 281 283 285 285
275 321 319 22 320 15 91 348 264 176 130 118 66 90 128 159 153 149 149 149 149 147 139 133 136 148 156 156 151 152 147 164 249 269 293 307 309 307 304 300 298 297 294 289
272 335 128 249 56 113 121 344 24 92 101 140 142 111 109 184 173 160 157 156 156 155 149 146 147 152 146 145 161 207 254 277 299 312 317 316 311 307 303 301 300 299 296 293
100 283 290 260 208 189 201 276 246 164 172 157 154 129 51 173 185 173 169 166 165 165 164 159 162 158 167 175 211 243 271 290 294 299 299 297 299 302 305 306 306 304 306 303
102 138 232 242 202 117 100 286 221 187 188 184 185 113 255 140 174 171 170 169 165 165 161 164 160 174 209 201 220 253 264 277 287 292 293 296 303 310 312 311 311 309 306 303
225 251 284 242 178 124 124 239 186 194 196 187 186 219 164 155 163 170 169 164 164 165 171 181 179 188 190 203 266 279 292 298 294 298 305 308 308 310 312 308 305 304 303 301
157 199 270 185 114 179 210 162 188 198 209 211 205 159 161 162 162 166 166 166 175 179 174 169 180 203 219 251 274 283 295 293 294 287 284 290 298 305 309 306 302 304 303 302
184 213 239 216 228 208 184 184 191 218 222 213 176 172 172 174 176 177 179 174 178 188 174 172 190 225 265 279 283 295 293 288 280 277 286 294 300 306 305 304 307 308 307 305
25 275 251 236 220 211 200 198 201 221 227 216 205 186 179 180 179 180 180 178 183 185 183 180 194 242 277 287 293 292 288 284 284 286 292 298 303 305 306 309 313 311 312 315
258 279 289 267 233 224 199 198 208 212 229 230 210 196 192 185 186 184 182 185 187 191 193 203 237 278 285 290 295 289 287 291 294 299 303 307 307 308 312 313 313 311 316 314
253 217 218 205 324 207 205 217 227 213 219 215 218 208 197 194 189 186 186 189 190 197 211 227 253 281 291 302 307 301 302 306 314 315 316 317 314 311 310 311 314 314 313 311
245 242 258 274 284 258 256 255 243 242 234 226 210 211 200 193 189 189 193 196 200 205 218 239 258 276 291 310 310 312 314 316 320 323 328 329 327 324 323 322 321 322 320 318
250 250 250 245 248 242 232 228 228 223 215 218 212 202 202 194 188 191 195 198 204 208 222 242 261 279 299 312 320 335 334 324 325 331 334 333 334 331 327 326 324 331 345 345
251 243 241 250 254 262 266 246 229 215 212 203 201 202 195 192 192 192 194 199 202 210 226 240 259 284 298 317 330 336 337 333 335 334 335 336 332 329 326 328 336 342 345 345
253 250 253 257 255 246 241 227 224 219 211 208 203 199 197 197 192 192 195 198 204 211 218 235 260 245 287 327 337 342 341 338 337 338 341 342 340 338 343 349 349 349 349 348
242 238 236 241 213 219 218 216 218 218 218 212 207 199 195 190 188 191 191 194 203 205 212 228 221 224 302 334 344 348 345 344 344 347 349 349 350 355 353 351 350 347 346 349
242 238 240 228 228 234 234 225 223 226 226 218 206 194 191 190 191 191 192 193 196 198 203 201 198 213 312 341 352 350 347 350 353 355 356 359 358 355 354 354 351 348 351 353
234 233 233 243 236 256 247 238 231 228 221 214 201 195 193 192 194 194 192 193 198 197 193 186 186 210 317 352 356 351 352 356 355 358 4 358 351 358 3 356 359 2 357 354
226 225 227 238 250 231 237 232 226 222 215 206 198 192 189 189 191 191 189 192 192 187 183 177 178 195 343 352 354 354 359 359 359 4 3 0 359 360 0 2 2 1 0 0
199 201 208 213 224 233 241 233 225 218 207 203 199 193 189 187 189 189 185 187 181 179 178 177 180 185 17 352 355 356 360 358 359 0 0 359 356 2 2 9 5 4 4 2
220 226 235 241 243 245 239 228 221 211 201 195 194 190 185 185 185 189 191 193 184 179 177 179 180 172 127 351 352 357 359 357 357 356 356 356 357 1 5 6 4 5 5 5
251 253 251 247 244 237 222 214 208 203 198 193 189 187 189 188 188 185 183 186 191 178 180 182 178 164 159 333 353 358 356 354 354 356 355 354 355 -0 2 2 359 4 6 6
263 251 234 217 207 196 197 192 193 194 192 185 186 188 187 184 185 189 195 189 179 181 182 180 176 169 185 323 351 354 352 353 351 353 351 349 355 360 2 3 2 6 7 7
274 240 203 186 181 170 183 182 180 179 180 178 181 183 184 191 193 185 187 186 179 183 182 182 180 180 200 307 340 346 348 350 350 352 350 350 355 0 6 5 4 8 8 8
164 166 151 168 171 164 173 173 173 173 175 173 175 179 182 185 187 191 183 181 180 182 183 186 186 192 216 297 331 341 345 348 349 350 350 351 356 1 4 5 6 8 9 7
170 159 150 156 170 171 175 173 174 174 177 178 175 179 184 185 187 184 183 182 185 186 187 191 195 201 228 296 325 337 343 345 348 350 350 353 359 2 4 6 5 8 8 6